Regional Weather Roundup
Issued by NWS

Current Version | Previous Version | Text Only | Print | Product List | Glossary On
Versions: 1 2 3 4 5 6 7 8 9 10 11 12 13 14 15 16 17 18 19 20 21 22 23 24 25 26 27 28 29 30 31 32 33 34 35 36 37 38 39 40 41 42 43 44 45 46 47 48 49 50
000
ASUS43 KDTX 231001
RWRMI
MICHIGAN HOURLY REGIONAL WEATHER ROUNDUP
NATIONAL WEATHER SERVICE DETROIT/PONTIAC MI
600 AM EDT WED JUL 23 2014

NOTE: "FAIR" INDICATES FEW OR NO CLOUDS BELOW 12,000 FEET WITH NO
SIGNIFICANT WEATHER AND/OR OBSTRUCTION TO VISIBILITY.

MIZ047>049-052>055-059>063-066>070-074>076-081>083-231100-
SOUTHEAST LOWER MICHIGAN

CITY           SKY/WX    TMP DP  RH WIND       PRES   REMARKS
ADRIAN         CLOUDY    73  62  68 W3        30.00R
ALMA           CLOUDY    62  56  79 N10G17    30.05R
ANN ARBOR      CLOUDY    72  64  76 NW7       29.97R
BAD AXE        CLOUDY    62  57  82 N9G17     30.02R
CARO           CLOUDY    65  62  88 N6        30.02R
DETROIT CITY   CLOUDY    77  69  76 NW5       29.93S
DETROIT        CLOUDY    73  66  78 W9        29.95R
FLINT          CLOUDY    66  58  75 N14       30.01R
GROSSE ILE     LGT RAIN  73  72  94 W6        29.93S
HILLSDALE      CLOUDY    69  68  96 CALM      30.01R
HOWELL         CLOUDY    65  59  81 NW13      30.00R

CITY           SKY/WX    TMP DP  RH WIND       PRES   REMARKS
JACKSON        CLOUDY    70  65  84 N3        30.01R
LAMBERTVILLE   CLOUDY    73  70  88 W3        29.98R
LANSING        CLOUDY    63  57  81 NE10G16   30.03R
LAPEER         CLOUDY    65  59  82 N9G17     30.01R
MASON          CLOUDY    64  59  84 N8        30.02R
MONROE         CLOUDY    73  70  88 W3        29.94R FOG
MT. CLEMENS    CLOUDY    73  68  83 N12       29.93S
PONTIAC        CLOUDY    73  66  78 N13G21    29.96S
PORT HOPE        N/A     63  58  83 CALM      30.00R
PORT HURON     CLOUDY    66  64  94 N10G16    29.97R
TRI CITIES     CLOUDY    64  56  75 N14       30.05R
TROY           CLOUDY    74  65  73 N12       29.96R
SAGINAW HB     CLOUDY    63  59  88 N7        30.03R
$$
MIZ043>046-050>051-056>058-064>065-071>073-077>080-231100-
SOUTHWEST LOWER MICHIGAN

CITY           SKY/WX    TMP DP  RH WIND       PRES   REMARKS
BATTLE CREEK   CLOUDY    69  65  86 N9        30.02R
BENTON HARBOR  CLOUDY    65  62  90 N10G20    30.03R
BIG RAPIDS     CLOUDY    62  54  76 N10G17    30.05R
COLDWATER      CLOUDY    70  67  91 NW6       30.01R
FREMONT        FAIR      59  57  92 N7        30.06R
HOLLAND        MOCLDY    63  58  83 N6        30.05R
GRAND RAPIDS   CLOUDY    63  57  81 N8        30.04R
IONIA          PTSUNNY   62  56  82 N7        30.03R
KALAMAZOO      CLOUDY    69  66  90 N13       30.01R
LUDINGTON      CLEAR     57  55  92 N8        30.09R
MARSHALL       CLOUDY    67  65  93 CALM      30.00R
MOUNT PLEASANT CLOUDY    63  56  78 N7        30.04R
MUSKEGON       PTCLDY    62  56  80 N12       30.06R
SOUTH HAVEN    CLOUDY    63  61  93 N9        30.04R
$$
MIZ016>042-231100-
NORTHERN LOWER MICHIGAN

CITY           SKY/WX    TMP DP  RH WIND       PRES   REMARKS
ALPENA         CLEAR     58  55  90 NW10      30.03R
BEAVER ISLAND  CLOUDY    57  55  95 N6        30.08S
BELLAIRE       CLOUDY    60  55  83 N6G16     30.05R
CADILLAC       CLOUDY    58  56  94 NW8       30.06R
CHARLEVOIX     CLOUDY    59  57  91 N12G20    30.09R
FRANKFORT      CLEAR     59  54  83 N8        30.08S
GAYLORD        CLOUDY    57  54  89 NW8       30.06R
GRAYLING       MOCLDY    58  56  96 NW6       30.06R
HARBOR SPRINGS CLEAR     58  54  84 NW12      30.05R
HOUGHTON LAKE  PTCLDY    59  54  83 N9        30.05R
MANISTEE       CLEAR     59  54  82 N5        30.09R
OSCODA         MOCLDY    61  54  76 N10G17    30.00R
PELLSTON       CLEAR     57  54  89 NW9       30.06R
ROGERS CITY    PTCLDY    58  57  96 NW9G17    30.03R
TRAVERSE CITY  PTCLDY    60  55  83 NW9       30.06R
$$
MIZ007>008-015-231100-
EASTERN UPPER MICHIGAN

CITY           SKY/WX    TMP DP  RH WIND       PRES   REMARKS
KINROSS        CLOUDY    54  52  94 NW13      30.04R
MACKINAC ISLAN CLOUDY    55  54  95 NW9       30.05R
NEWBERRY       CLEAR     51  49  95 NW7       30.08S
S. S. MARIE    CLOUDY    56  53  90 NW7       30.04R
$$
MIZ004>006-011>014-085-231100-
CENTRAL UPPER MICHIGAN

CITY           SKY/WX    TMP DP  RH WIND       PRES   REMARKS
MANISTIQUE     PTCLDY    49  49  98 NW6       30.10R
ESCANABA       CLEAR     54  48  82 NW3       30.13R
MENOMINEE      CLEAR     55  52  88 N7        30.13S
SAWYER-GWINN   CLEAR     52  50  93 N8        30.16R
$$
MIZ001>003-009>011-084-231100-
WESTERN UPPER MICHIGAN

CITY           SKY/WX    TMP DP  RH WIND       PRES   REMARKS
IRON MOUNTAIN  PTCLDY    55  52  89 NW6       30.16R
HOUGHTON       CLOUDY    55  52  89 CALM      30.18R
COPPER HARBOR    N/A     53  50  89 N6        30.18R
$$

ABBREVIATIONS USED IN REMARKS
   TC - TEMPERATURE IN CELSIUS
  WCI - WIND CHILL INDEX
   HX - HEAT INDEX
  VSB - VISIBILITY



USA.gov is the U.S. government's official web portal to all federal, state and local government web resources and services.